Simultaneous Nadir Overpasses (SNOs) Predictions

Prediction of SNOs between GOES-16 and TERRA Satellite Orbit:

Table of predicted SNOs for the next 14.0 days since TLE Epoch: 12/24/2022
Index Date Time (GOES-16) GOES-16 Lat,Lon TERRA Lat,Lon Distance(km) Time Diff (sec)
1 12/24/2022 14:56:04 -0.03, -75.20 -0.85, -71.43 429.31 80
2 12/25/2022 03:19:12 0.03, -75.19 -0.24, -76.39 137.26 80
3 12/27/2022 03:00:47 0.03, -75.20 0.56, -72.58 296.55 80
4 12/27/2022 15:23:48 -0.02, -75.21 0.49, -77.53 263.32 80
5 12/29/2022 15:05:23 -0.02, -75.23 -0.33, -73.72 171.85 80
6 12/30/2022 03:28:32 0.01, -75.23 -0.69, -78.70 394.05 80
7 01/01/2023 03:10:06 0.02, -75.26 0.08, -74.88 42.04 80
8 01/03/2023 02:54:21 0.02, -75.29 0.92, -71.08 478.51 80
9 01/03/2023 15:17:22 -0.02, -75.31 0.10, -76.03 80.84 80
10 01/05/2023 14:58:56 -0.02, -75.35 -0.70, -72.22 356.40 80
11 01/06/2023 03:22:04 0.02, -75.35 -0.37, -77.18 209.07 80
